When you browse on this site, cookies collect data to enhance your experience and personalize the content and advertising you see.
Visit our Privacy Policy to learn more. By continuing to use the site, you agree to this use of cookies and data.
  • In Sweden
  • List of Countries
  • For 7 days
  • Water Temperature
  • Weather Map
  • Weather Widgets
  • user-avatar
    Login

    Hourly Weather Cuiaba

    Today, 16 November, Saturday

    Time Temperature Precipitation Wind Pressure Humidity
    00:00 +24°C° 0 mm 0 mps 737 mmHg 88%
    01:00 +26°C° 0 mm 1 mps 737 mmHg 89%
    02:00 +26°C° 0 mm 1 mps 737 mmHg 89%
    03:00 +25°C° 0.2 mm 1 mps 737 mmHg 90%
    04:00 +25°C° 0.2 mm 1 mps 736 mmHg 91%
    05:00 +23°C° 0.2 mm 0 mps 736 mmHg 92%
    06:00 +26°C° 1 mm 1 mps 737 mmHg 88%
    07:00 +28°C° 1 mm 1 mps 738 mmHg 83%
    08:00 +29°C° 1 mm 1 mps 738 mmHg 78%
    09:00 +31°C° 1.3 mm 1 mps 738 mmHg 70%
    10:00 +33°C° 1.3 mm 1 mps 738 mmHg 63%
    11:00 +34°C° 1.3 mm 1 mps 737 mmHg 55%
    12:00 +35°C° 0.2 mm 1 mps 737 mmHg 52%
    13:00 +35°C° 0.2 mm 1 mps 736 mmHg 49%
    14:00 +36°C° 0.2 mm 1 mps 735 mmHg 47%
    15:00 +34°C° 0.5 mm 1 mps 735 mmHg 55%
    16:00 +32°C° 0.5 mm 2 mps 735 mmHg 63%
    17:00 +31°C° 0.5 mm 2 mps 734 mmHg 71%
    18:00 +29°C° 0.2 mm 2 mps 735 mmHg 77%
    19:00 +28°C° 0.2 mm 2 mps 735 mmHg 83%
    20:00 +26°C° 0.2 mm 2 mps 736 mmHg 88%
    21:00 +26°C° 0.1 mm 2 mps 736 mmHg 89%
    22:00 +25°C° 0.1 mm 2 mps 736 mmHg 89%
    23:00 +25°C° 0.1 mm 2 mps 736 mmHg 90%

    Tomorrow, 17 November, Sunday

    Time Temperature Precipitation Wind Pressure Humidity
    00:00 +25°C° 0 mm 2 mps 736 mmHg 90%
    01:00 +25°C° 0 mm 2 mps 736 mmHg 90%
    02:00 +24°C° 0 mm 2 mps 735 mmHg 90%
    03:00 +24°C° 0 mm 1 mps 735 mmHg 90%
    04:00 +24°C° 0 mm 1 mps 736 mmHg 91%
    05:00 +22°C° 0 mm 0 mps 736 mmHg 91%
    06:00 +24°C° 0 mm 0 mps 736 mmHg 82%
    07:00 +27°C° 0 mm 0 mps 737 mmHg 72%
    08:00 +29°C° 0 mm 0 mps 738 mmHg 62%
    09:00 +34°C° 0 mm 1 mps 737 mmHg 53%
    10:00 +36°C° 0 mm 1 mps 737 mmHg 45%
    11:00 +40°C° 0 mm 1 mps 737 mmHg 36%
    12:00 +39°C° 0 mm 1 mps 736 mmHg 37%
    13:00 +37°C° 0 mm 1 mps 736 mmHg 38%
    14:00 +37°C° 0 mm 1 mps 735 mmHg 40%
    15:00 +37°C° 0 mm 2 mps 735 mmHg 43%
    16:00 +36°C° 0 mm 2 mps 734 mmHg 47%
    17:00 +35°C° 0 mm 2 mps 734 mmHg 51%
    18:00 +32°C° 0 mm 2 mps 734 mmHg 57%
    19:00 +31°C° 0 mm 2 mps 735 mmHg 63%
    20:00 +29°C° 0 mm 2 mps 735 mmHg 69%
    21:00 +28°C° 0 mm 2 mps 736 mmHg 71%
    22:00 +28°C° 0 mm 1 mps 736 mmHg 74%
    23:00 +27°C° 0 mm 1 mps 736 mmHg 77%

    Day after tomorrow, 18 November, Monday

    Time Temperature Precipitation Wind Pressure Humidity
    00:00 +27°C° 0 mm 1 mps 736 mmHg 78%
    01:00 +26°C° 0 mm 1 mps 736 mmHg 80%
    02:00 +26°C° 0 mm 1 mps 736 mmHg 82%
    03:00 +26°C° 0 mm 1 mps 736 mmHg 83%
    04:00 +25°C° 0 mm 1 mps 736 mmHg 85%
    05:00 +25°C° 0 mm 1 mps 736 mmHg 86%
    06:00 +28°C° 0.1 mm 1 mps 737 mmHg 77%
    07:00 +30°C° 0.1 mm 1 mps 737 mmHg 69%
    08:00 +32°C° 0.1 mm 1 mps 738 mmHg 60%
    09:00 +34°C° 0.1 mm 1 mps 738 mmHg 53%
    10:00 +36°C° 0.1 mm 1 mps 738 mmHg 45%
    11:00 +39°C° 0.1 mm 2 mps 738 mmHg 37%
    12:00 +39°C° 0 mm 2 mps 737 mmHg 38%
    13:00 +38°C° 0 mm 2 mps 736 mmHg 40%
    14:00 +36°C° 0 mm 1 mps 736 mmHg 41%
    15:00 +35°C° 0.3 mm 1 mps 736 mmHg 47%
    16:00 +34°C° 0.3 mm 1 mps 736 mmHg 53%
    17:00 +32°C° 0.3 mm 1 mps 735 mmHg 59%
    18:00 +30°C° 0.8 mm 2 mps 736 mmHg 69%
    19:00 +28°C° 0.8 mm 2 mps 737 mmHg 78%
    20:00 +26°C° 0.8 mm 3 mps 737 mmHg 88%
    21:00 +26°C° 0.5 mm 3 mps 738 mmHg 89%
    22:00 +26°C° 0.5 mm 2 mps 738 mmHg 90%
    23:00 +25°C° 0.5 mm 2 mps 738 mmHg 91%

    19 November, Tuesday

    Time Temperature Precipitation Wind Pressure Humidity
    00:00 +25°C° 0 mm 2 mps 738 mmHg 91%
    01:00 +25°C° 0 mm 2 mps 737 mmHg 92%
    02:00 +25°C° 0 mm 2 mps 737 mmHg 92%
    03:00 +25°C° 0 mm 2 mps 737 mmHg 92%
    04:00 +25°C° 0 mm 1 mps 737 mmHg 92%
    05:00 +25°C° 0 mm 1 mps 738 mmHg 91%
    06:00 +26°C° 0 mm 1 mps 738 mmHg 84%
    07:00 +28°C° 0 mm 1 mps 739 mmHg 76%
    08:00 +29°C° 0 mm 2 mps 739 mmHg 69%
    09:00 +30°C° 0 mm 2 mps 739 mmHg 64%
    10:00 +31°C° 0 mm 2 mps 739 mmHg 59%
    11:00 +33°C° 0 mm 3 mps 739 mmHg 54%
    12:00 +35°C° 0 mm 2 mps 738 mmHg 50%
    13:00 +36°C° 0 mm 2 mps 737 mmHg 45%
    14:00 +37°C° 0 mm 2 mps 737 mmHg 40%
    15:00 +36°C° 0 mm 2 mps 737 mmHg 44%
    16:00 +35°C° 0 mm 3 mps 737 mmHg 48%
    17:00 +34°C° 0 mm 3 mps 736 mmHg 52%
    18:00 +31°C° 0 mm 3 mps 737 mmHg 58%
    19:00 +30°C° 0 mm 3 mps 738 mmHg 63%
    20:00 +28°C° 0 mm 3 mps 738 mmHg 69%
    21:00 +28°C° 0 mm 3 mps 738 mmHg 72%
    22:00 +27°C° 0 mm 3 mps 739 mmHg 74%
    23:00 +27°C° 0 mm 3 mps 739 mmHg 77%

    20 November, Wednesday

    Time Temperature Precipitation Wind Pressure Humidity
    00:00 +27°C° 0 mm 4 mps 739 mmHg 78%
    01:00 +26°C° 0 mm 4 mps 738 mmHg 80%
    02:00 +26°C° 0 mm 5 mps 738 mmHg 81%
    03:00 +26°C° 0 mm 4 mps 738 mmHg 81%
    04:00 +26°C° 0 mm 4 mps 739 mmHg 81%
    05:00 +26°C° 0 mm 4 mps 739 mmHg 81%
    06:00 +26°C° 0 mm 4 mps 739 mmHg 77%
    07:00 +27°C° 0 mm 4 mps 740 mmHg 74%
    08:00 +28°C° 0 mm 4 mps 740 mmHg 71%
    09:00 +30°C° 0 mm 4 mps 740 mmHg 64%
    10:00 +32°C° 0 mm 4 mps 740 mmHg 56%
    11:00 +34°C° 0 mm 4 mps 740 mmHg 49%
    12:00 +35°C° 0.1 mm 4 mps 739 mmHg 49%
    13:00 +35°C° 0.1 mm 4 mps 739 mmHg 48%
    14:00 +35°C° 0.1 mm 4 mps 738 mmHg 48%
    15:00 +34°C° 0.1 mm 4 mps 737 mmHg 51%
    16:00 +33°C° 0.1 mm 4 mps 737 mmHg 55%
    17:00 +31°C° 0.1 mm 3 mps 737 mmHg 58%
    18:00 +30°C° 0 mm 3 mps 737 mmHg 64%
    19:00 +28°C° 0 mm 2 mps 738 mmHg 71%
    20:00 +27°C° 0 mm 2 mps 738 mmHg 77%
    21:00 +26°C° 0 mm 2 mps 738 mmHg 78%
    22:00 +26°C° 0 mm 2 mps 738 mmHg 79%
    23:00 +25°C° 0 mm 2 mps 738 mmHg 81%

    21 November, Thursday

    Time Temperature Precipitation Wind Pressure Humidity
    00:00 +25°C° 0 mm 2 mps 738 mmHg 83%
    01:00 +25°C° 0 mm 2 mps 738 mmHg 84%
    02:00 +24°C° 0 mm 1 mps 737 mmHg 86%
    03:00 +24°C° 0 mm 1 mps 738 mmHg 86%
    04:00 +24°C° 0 mm 1 mps 738 mmHg 86%
    05:00 +24°C° 0 mm 2 mps 738 mmHg 86%
    06:00 +26°C° 0 mm 2 mps 738 mmHg 76%
    07:00 +28°C° 0 mm 2 mps 739 mmHg 67%
    08:00 +30°C° 0 mm 2 mps 740 mmHg 58%
    09:00 +33°C° 0.1 mm 3 mps 739 mmHg 52%
    10:00 +35°C° 0.1 mm 3 mps 739 mmHg 45%
    11:00 +37°C° 0.1 mm 3 mps 739 mmHg 39%
    12:00 +37°C° 0.1 mm 3 mps 738 mmHg 39%
    13:00 +37°C° 0.1 mm 3 mps 737 mmHg 39%
    14:00 +37°C° 0.1 mm 3 mps 737 mmHg 39%
    15:00 +36°C° 0.2 mm 3 mps 736 mmHg 45%
    16:00 +34°C° 0.2 mm 3 mps 736 mmHg 51%
    17:00 +33°C° 0.2 mm 3 mps 736 mmHg 58%
    18:00 +30°C° 0.1 mm 3 mps 736 mmHg 63%
    19:00 +29°C° 0.1 mm 2 mps 737 mmHg 69%
    20:00 +27°C° 0.1 mm 2 mps 737 mmHg 74%
    21:00 +27°C° 0 mm 2 mps 737 mmHg 76%
    22:00 +27°C° 0 mm 2 mps 737 mmHg 78%
    23:00 +26°C° 0 mm 2 mps 738 mmHg 79%
    Show more